Location: C�mpuri de-Sus
(45.9500°N, 22.5500°E)
Time: 13:33:29
(UTC+00:00)

CZ-4 R/B - Pass Details

Date: 24 October 2021
Orbit: 580 x 588 km, 97.7° (Epoch: 07 December)

Event Time Altitude Azimuth Distance (km) Brightness Sun altitude
Rises 16:47:53 0° 167° (SSE) 2,799 7.8 -14.5°
Reaches altitude 10° 16:50:01 10° 167° (SSE) 1,902 7.0 -14.8°
Maximum altitude 16:54:09 86° 254° (WSW) 593 4.4 -15.6°
Drops below altitude 10° 16:58:19 10° 346° (NNW) 1,913 7.2 -16.3°
Sets 17:00:29 0° 347° (NNW) 2,817 8.1 -16.7°
